SCP
-0 -0 -0 -0 -0 -0 -0 -0 -0 -0 -0 -0 -0 -0 -0 -0 -0 -0 -0 -0 -0 -0 -0 -0 0 -0 -0 0 -0 -0 -0 -0 -0 -0 -0 -0 0 -0 -0 -0 0 0 -0 -0 0 0 0
-0 -0 -0 -0 -0 -0 -0 -0 -0 -0 -0 -0 -0 -0 -0 -0 -0 -0 -0 -0 -0 -0 -0 -0 0 -0 0 -0 -0 -0 -0 -0 -0 -0 -0 0 0 0 -0 -0 -0 -0 -0 -0 -0 -0 -0
-0 -0 -0 -0 -0 -0 -0 -0 -0 -0 -0 -0 -0 -0 -0 -0 -0 -0 -0 -0 -0 -0 -0 0 0 -0 -0 -0 0 -0 -0 -0 -0 0 -0 -0 0 -0 0 -0 -0 -0 -0 0 0 -0 -0
-0 -0 -0 -0 -0 -0 -0 -0 -0 -0 -0 -0 -0 -0 -0 -0 -0 -0 -0 -0 -0 -0 -0 0 0 -0 -0 -0 0 0 -0 -0 -0 0 0 0 -0 -0 0 0 0 0 -0 0 0 0 -0
-0 -0 -0 -0 -0 -0 -0 -0 -0 -0 -0 -0 -0 -0 -0 -0 -0 -0 -0 -0 -0 -0 -0 -0 -0 -0 -0 -0 0 -0 -0 -0 -0 -0 -0 0 -0 -0 -0 -0 -0 -0 -0 0 0 0 0
-0 -0 -0 -0 -0 -0 -0 -0 -0 -0 -0 -0 -0 -0 -0 -0 -0 -0 -0 -0 -0 -0 -0 -0 -0 -0 -0 -0 -0 -0 -0 -0 -0 -0 -0 -0 -0 -0 -0 -0 -0 -0 -0 -0 0 0 0
-0 -0 -0 -0 -0 -0 -0 -0 -0 -0 -0 -0 -0 -0 -0 -0 -0 -0 -0 -0 -0 -0 -0 -0 -0 -0 -0 -0 -0 -0 -0 -0 -0 -0 -0 -0 -0 -0 0 0 -0 -0 0 -0 0 0 0
-0 -0 -0 -0 -0 -0 -0 -0 -0 -0 -0 -0 -0 -0 -0 -0 0 -0 -0 0 0 -0 -0 -0 -0 -0 -0 -0 -0 -0 -0 -0 -0 -0 -0 -0 -0 -0 0 0 -0 -0 0 0 0 0 0
-0 -0 0 0 -0 -0 -0 -0 -0 -0 -0 -0 -0 -0 0 0 0 0 -0 -0 -0 -0 -0 -0 -0 -0 -0 -0 -0 -0 -0 -0 -0 -0 -0 -0 -0 -0 -0 -0 -0 0 0 -0 -0 0 0
-0 0 0 0 -0 -0 -0 -0 -0 -0 -0 -0 -0 -0 -0 -0 -0 0 -0 -0 -0 -0 -0 -0 -0 -0 -0 -0 -0 -0 -0 -0 0 -0 -0 0 -0 0 -0 -0 -0 -0 0 0 0 -0 0
-0 0 0 0 -0 -0 -0 -0 -0 -0 -0 -0 -0 -0 -0 0 0 0 -0 0 0 -0 -0 -0 -0 -0 -0 -0 -0 -0 -0 -0 -0 -0 0 -0 0 0 0 -0 0 -0 -0 -0 0 -0 -0
0 0 0 0 -0 -0 -0 -0 -0 -0 -0 -0 -0 -0 -0 0 0 0 0 -0 0 -0 0 -0 -0 -0 -0 -0 -0 -0 -0 0 -0 0 -0 -0 0 0 0 -0 -0 0 -0 -0 -0 -0 0
0 0 0 -0 -0 -0 -0 -0 -0 -0 -0 -0 -0 -0 0 0 0 0 0 0 0 0 -0 -0 -0 -0 -0 -0 -0 -0 -0 -0 -0 -0 -0 -0 -0 0 -0 0 -0 -0 -0 -0 0 0 0
0 0 0 -0 -0 -0 -0 -0 -0 -0 -0 -0 -0 0 -0 -0 0 0 -0 0 0 0 0 0 -0 -0 -0 -0 -0 -0 -0 -0 -0 0 -0 -0 -0 -0 -0 -0 -0 -0 -0 -0 -0 -0 0
0 0 -0 -0 -0 -0 -0 -0 -0 -0 -0 -0 -0 0 -0 0 -0 -0 -0 0 0 0 0 0 -0 -0 -0 -0 0 -0 -0 -0 -0 -0 0 0 -0 0 0 -0 -0 -0 0 -0 -0 -0 -0
0 0 -0 -0 -0 -0 -0 -0 -0 -0 -0 -0 -0 0 0 0 -0 -0 0 -0 0 0 0 0 0 0 0 -0 -0 0 -0 -0 -0 -0 -0 0 0 0 -0 0 -0 0 -0 -0 0 0 0
0 0 -0 -0 -0 -0 -0 -0 -0 -0 -0 -0 0 -0 0 -0 -0 -0 -0 0 0 0 0 0 -0 0 -0 -0 0 -0 0 -0 0 0 0 0 0 0 0 0 0 0 -0 -0 0 0 0
-0 -0 0 0 -0 -0 -0 -0 -0 -0 -0 0 -0 -0 0 -0 0 -0 0 0 0 0 0 0 0 0 0 0 -0 -0 -0 0 0 0 0 0 -0 0 0 0 0 0 -0 0 0 -0 0
0 0 0 0 -0 -0 -0 -0 -0 -0 -0 -0 0 0 0 -0 -0 0 0 0 0 0 0 0 0 0 0 0 0 0 -0 0 0 0 0 -0 0 0 0 0 0 0 0 0 -0 0 0
0 0 0 0 -0 -0 -0 -0 -0 -0 -0 -0 0 -0 0 0 0 0 0 0 0 0 0 0 0 0 0 0 0 0 0 0 0 0 0 0 0 -0 -0 0 0 0 -0 0 -0 0 0
0 0 0 0 0 -0 -0 -0 -0 -0 -0 0 0 0 0 0 0 0 0 0 0 0 0 0 0 0 0 0 0 0 0 0 0 0 0 0 0 0 -0 0 0 0 0 0 0 -0 0
-0 0 0 0 0 -0 -0 -0 -0 -0 -0 0 0 0 0 0 0 0 0 0 0 0 0 0 0 0 0 0 0 0 0 0 0 0 0 0 0 0 0 -0 0 0 0 0 0 0 0
-0 0 0 0 0 -0 -0 -0 -0 -0 -0 -0 -0 0 0 0 0 0 0 0 0 0 0 0 0 0 0 0 0 0 0 0 0 0 0 0 0 0 0 0 0 0 0 0 0 0 0
-0 -0 0 0 0 0 -0 -0 -0 -0 -0 -0 -0 0 0 0 0 0 0 0 0 0 0 0 0 0 0 0 0 0 0 0 0 0 0 0 0 0 0 0 0 0 0 0 0 0 0
-0 -0 0 0 0 0 0 -0 -0 -0 -0 -0 -0 0 0 0 0 0 0 0 0 0 0 0 0 0 0 0 0 0 0 0 0 0 0 0 0 0 0 0 0 0 0 0 0 0 0
-0 0 0 0 0 0 0 -0 -0 -0 -0 0 0 0 0 0 0 0 0 0 0 0 0 0 0 0 0 0 0 0 0 0 0 0 0 0 0 0 0 0 0 0 0 0 0 0 1
-0 0 0 0 0 0 0 0 -0 -0 -0 -0 0 0 0 0 0 0 0 0 0 0 0 0 0 0 0 0 0 0 0 0 0 0 0 0 0 0 0 0 0 0 0 0 0 1 1
-0 0 0 -0 0 0 0 0 -0 0 0 0 0 0 0 0 0 0 0 0 0 0 0 0 0 0 0 0 0 0 0 0 0 0 0 0 0 0 0 0 0 0 0 1 1 1 1
-0 0 0 0 -0 -0 -0 0 0 0 0 0 -0 0 0 0 0 0 -0 -0 -0 0 0 0 0 0 0 0 0 0 0 0 0 0 0 0 0 0 0 0 0 -0 0 0 0 1 0
Wind_Speed_500mb
41 40 38 37 35 33 31 29 27 25 23 21 18 15 12 12 13 11 9 6 3 3 3 10 14 16 16 15 17 7 19 29 25 24 24 22 19 13 14 8 20 15 12 9 7 9 9
42 41 39 37 36 36 34 32 31 28 24 21 21 19 17 14 15 15 13 9 5 3 2 5 12 17 17 31 6 8 18 29 24 23 24 18 12 12 13 9 14 9 2 6 3 4 8
43 43 42 40 38 36 36 35 34 33 30 26 23 21 20 18 15 17 16 12 8 5 5 4 8 17 20 16 12 14 26 29 26 24 19 18 14 21 14 11 5 9 17 11 15 12 9
47 48 46 44 40 37 36 35 35 35 34 30 26 24 22 18 15 17 18 16 11 8 7 6 6 11 16 22 12 18 27 28 25 23 17 15 17 22 16 5 19 13 11 14 17 22 18
50 52 51 49 45 43 41 39 37 36 35 33 29 27 24 17 13 16 19 17 13 10 7 9 4 11 21 18 24 25 26 28 24 22 18 15 20 31 15 25 9 23 11 10 17 17 5
53 55 52 50 48 46 44 43 41 39 37 34 32 30 26 16 12 15 20 17 13 11 10 9 12 16 23 26 32 31 27 21 26 24 23 23 24 28 26 20 9 15 19 17 10 19 16
54 57 57 53 50 49 47 46 44 42 39 35 34 34 30 19 14 20 26 20 8 10 27 23 21 11 15 27 31 32 28 25 24 26 29 34 26 28 8 3 13 19 17 18 11 7 13
57 60 59 57 54 52 50 49 45 44 41 38 36 37 32 19 17 27 37 23 5 5 20 36 14 12 8 25 33 33 29 29 31 29 35 27 25 31 12 8 16 20 23 17 10 8 20
60 62 61 61 60 56 52 50 46 44 43 40 39 36 23 11 18 33 40 30 10 6 17 31 28 29 25 26 31 34 35 36 25 31 34 32 27 3 5 16 24 25 15 17 17 16 14
62 63 65 66 64 58 54 51 47 45 44 43 38 23 7 14 10 19 29 30 20 7 12 23 26 28 26 29 24 24 36 35 20 28 29 24 37 16 22 24 19 28 14 17 22 25 1
63 65 67 68 65 59 56 55 50 47 44 40 26 12 8 26 24 18 11 17 17 9 12 25 24 22 31 35 24 28 27 40 32 23 20 31 23 26 29 30 4 25 16 24 21 30 29
63 65 68 69 66 62 59 58 51 50 44 33 14 4 17 12 30 13 15 17 17 14 4 17 21 25 30 37 22 17 29 32 27 29 28 32 30 24 24 12 10 21 26 33 32 29 22
63 64 67 68 67 65 62 59 54 51 42 21 9 7 18 31 7 16 12 24 13 16 9 18 27 35 32 26 28 22 27 30 28 21 28 34 38 37 29 31 28 22 29 28 19 17 13
62 63 66 67 67 67 64 62 56 49 38 11 5 10 18 12 8 12 17 19 17 9 5 9 7 29 29 25 27 25 26 28 32 33 27 22 31 47 38 42 32 29 27 24 27 19 24
61 62 65 67 68 66 66 65 59 48 34 4 11 10 6 9 12 13 26 19 7 3 10 9 18 21 27 25 21 29 27 26 28 30 28 13 14 15 18 39 37 34 33 25 30 34 26
60 61 65 67 68 67 67 66 63 46 29 12 11 9 7 11 11 13 17 26 5 11 13 14 26 20 24 31 25 27 27 21 29 25 26 28 24 13 25 16 26 32 34 21 22 25 25
59 61 63 67 68 67 66 65 66 47 20 18 8 16 9 10 11 21 18 6 3 9 10 13 19 14 18 22 21 30 22 25 17 13 17 30 28 31 17 22 28 17 26 27 29 24 24
59 60 62 66 67 66 64 65 66 52 15 18 16 5 12 15 21 22 18 5 7 20 9 18 13 25 24 24 19 25 34 27 14 13 24 28 28 27 34 33 31 27 31 29 24 35 22
57 58 61 64 66 65 65 64 62 53 28 8 14 7 9 17 12 13 7 12 11 13 14 10 14 8 23 21 20 25 29 6 5 16 15 25 18 26 36 31 37 24 28 28 36 31 31
55 57 59 62 65 66 65 63 58 45 22 3 11 9 12 19 16 20 6 14 9 9 23 13 20 19 24 25 28 23 26 23 7 23 13 11 33 38 34 38 9 17 40 31 35 31 33
54 55 56 59 63 64 63 62 59 44 20 12 7 8 10 2 6 12 9 8 12 13 8 13 17 17 23 22 30 30 28 34 24 21 17 25 38 41 45 50 49 42 40 38 35 39 33
52 52 52 56 60 60 60 59 58 49 34 23 13 14 5 6 4 13 10 5 17 14 8 24 9 27 12 26 29 34 35 27 17 33 19 23 33 36 44 51 47 47 47 46 48 47 44
49 48 49 52 56 56 55 54 56 56 40 23 21 11 12 6 4 11 10 14 13 12 8 13 18 17 23 19 28 34 36 40 40 36 35 31 30 35 43 42 45 48 44 51 52 50 44
48 44 46 49 51 50 49 48 50 51 44 30 25 13 12 5 8 13 8 7 10 10 17 22 18 20 19 27 38 41 50 54 52 45 49 40 38 29 34 39 50 42 42 45 41 39 31
47 41 42 45 47 46 43 41 44 44 40 27 28 16 12 11 8 7 9 18 19 11 20 17 19 18 22 28 20 20 25 35 37 38 39 38 35 34 32 36 49 48 37 28 24 27 19
48 39 40 42 44 43 41 36 38 39 36 22 24 21 10 17 12 11 21 7 15 15 18 9 6 18 23 21 18 24 21 26 16 13 10 18 25 29 32 42 45 33 13 26 15 24 25
50 37 37 39 41 39 37 34 35 35 36 26 19 30 10 14 5 16 11 16 16 15 13 8 12 16 13 15 18 20 23 18 20 24 26 20 12 27 28 37 39 32 25 18 21 6 19
51 36 35 36 38 34 33 32 31 32 34 32 17 29 17 12 20 7 11 12 10 12 13 19 14 11 14 13 16 13 16 13 15 23 22 25 19 24 23 21 29 40 22 12 22 21 20
50 34 33 35 35 33 31 32 30 30 30 27 15 21 19 7 13 20 15 18 19 16 18 10 12 8 16 12 11 9 17 19 27 24 1 12 16 14 13 8 33 6 34 30 19 27 20
Wind_Direction_500mb
33 30 26 21 17 12 7 3 360 357 356 353 349 334 312 279 261 257 259 259 272 284 252 221 218 213 208 232 253 240 176 181 178 179 201 213 243 291 334 354 322 13 13 338 8 273 270
31 25 21 16 12 11 5 359 354 350 347 347 344 334 321 297 259 244 241 239 236 227 178 195 200 199 202 243 158 234 183 185 185 191 204 226 288 341 281 27 302 6 324 352 101 171 214
24 19 15 10 8 5 2 357 351 346 340 339 336 331 321 307 273 239 230 229 223 213 186 147 177 192 229 233 193 196 187 186 190 200 213 226 267 269 340 295 332 287 278 200 152 177 160
21 16 12 7 4 1 357 351 344 341 334 330 329 325 323 303 278 236 222 221 217 210 194 169 158 185 257 197 198 187 180 184 199 206 230 246 244 270 267 346 238 260 282 177 135 181 172
16 13 10 7 3 359 356 350 344 337 332 328 324 320 323 302 281 231 211 210 210 206 198 184 157 199 228 222 195 184 181 189 196 204 221 232 241 255 250 238 330 242 331 20 145 193 199
12 10 8 6 3 357 352 347 342 335 330 326 318 315 317 299 272 216 196 193 195 205 198 197 233 232 219 204 185 182 181 190 194 205 221 226 234 239 226 281 260 345 326 322 352 151 210
8 5 3 1 360 357 352 347 342 334 328 323 314 311 309 295 251 200 179 156 169 213 210 212 173 259 141 160 174 184 186 192 201 212 221 201 230 235 215 258 331 292 298 298 49 137 231
5 1 359 359 357 354 350 347 344 335 329 323 316 312 305 282 226 195 187 198 271 10 212 219 221 228 170 175 182 190 191 201 204 220 224 223 232 261 36 277 276 286 275 10 150 214 218
3 0 359 357 355 352 351 351 347 336 332 325 321 317 306 238 202 197 195 208 266 286 259 174 203 205 189 199 203 187 199 215 202 222 228 249 229 237 256 251 268 269 350 342 315 278 239
1 1 359 357 356 355 355 355 349 339 335 329 326 324 303 153 163 186 217 220 231 273 264 138 191 216 192 200 224 214 198 213 228 241 239 232 258 218 234 252 273 291 10 308 289 287 165
1 1 359 358 357 358 358 359 351 344 339 334 334 330 180 155 141 167 136 183 195 229 251 160 137 144 182 205 111 187 198 216 242 213 251 234 231 245 248 252 7 292 324 308 293 293 291
1 1 360 359 0 1 359 359 355 349 344 341 348 354 156 166 153 161 152 173 170 234 169 153 149 182 189 207 206 136 196 219 233 252 238 256 258 239 261 265 238 288 277 262 251 248 251
360 1 1 1 2 2 359 359 358 353 348 353 8 121 158 136 129 154 162 168 217 260 140 150 175 167 196 185 212 180 197 202 225 217 230 233 235 248 230 257 234 235 259 271 260 223 268
359 0 1 2 2 1 360 359 0 355 352 9 68 139 159 172 175 165 171 221 257 9 144 79 208 178 204 203 208 196 191 220 214 253 284 231 220 211 216 227 260 242 253 290 308 309 332
358 359 0 2 1 -0 360 359 360 358 352 119 111 113 118 193 199 181 213 227 296 1 38 252 173 232 205 221 243 202 219 231 222 208 257 293 220 91 219 216 229 243 257 283 289 286 263
357 358 0 1 0 359 359 357 358 0 349 183 142 182 166 177 185 188 243 267 28 329 307 244 261 203 241 199 203 240 217 220 239 218 224 267 282 224 200 201 242 261 268 248 223 258 267
357 358 360 0 0 0 2 359 358 2 359 169 162 209 168 183 185 225 245 241 85 179 288 276 273 282 262 293 247 226 229 244 203 244 252 256 253 268 219 211 256 184 234 251 274 293 310
356 357 359 1 1 2 2 1 360 1 25 167 272 223 169 168 217 227 258 2 22 269 220 266 262 281 292 299 288 273 267 246 50 259 260 245 264 257 251 244 229 250 265 221 228 235 247
356 357 359 0 1 1 3 3 2 1 9 175 261 73 177 194 258 213 150 265 279 286 249 299 280 280 305 281 277 270 273 50 26 292 282 282 242 261 256 255 238 235 239 252 263 277 271
356 357 358 359 0 2 4 6 6 5 12 129 279 211 164 217 271 290 336 255 262 157 284 283 286 295 271 266 263 256 276 267 198 279 16 304 272 276 281 290 360 261 282 255 270 254 260
353 355 357 358 1 3 6 10 11 13 33 50 326 43 349 161 151 311 301 333 282 274 184 275 275 252 294 294 285 271 253 258 231 205 229 249 259 267 273 279 282 285 269 263 250 264 274
351 353 355 358 1 4 8 13 17 21 45 44 14 338 325 17 281 275 135 203 303 311 315 286 245 303 328 289 289 296 305 307 293 285 233 263 276 273 270 278 280 277 279 280 276 274 271
351 352 354 358 0 4 9 15 19 22 43 37 17 356 305 107 296 266 54 14 354 337 261 307 322 307 290 339 333 306 300 286 281 279 282 284 280 282 272 273 271 261 256 258 260 259 262
350 351 354 357 360 3 8 13 17 20 31 37 9 351 304 60 320 11 351 322 314 328 301 307 305 288 307 318 303 279 264 261 260 261 261 263 261 263 271 276 263 270 283 288 299 279 289
350 348 351 355 358 1 5 9 13 18 23 46 9 21 347 312 2 172 345 321 298 260 244 276 299 309 308 302 286 272 263 240 239 249 252 251 254 259 260 257 269 270 272 289 311 297 303
348 345 347 351 356 360 2 6 9 14 20 50 2 13 341 310 64 338 311 298 310 329 285 198 282 294 297 274 272 265 270 310 303 303 214 287 277 243 249 257 261 272 29 358 303 275 12
348 342 342 348 353 358 1 3 6 8 13 22 354 9 359 305 23 334 345 336 324 298 279 278 350 303 245 274 274 278 285 331 293 282 290 285 270 278 254 247 257 280 1 266 262 316 12
345 337 337 343 347 351 355 359 2 3 5 14 349 355 15 301 301 299 312 301 300 265 305 17 272 201 260 281 276 304 314 334 313 303 297 302 293 283 272 320 263 349 312 321 1 328 335
339 332 333 338 341 343 346 348 353 355 0 3 345 337 333 281 297 299 270 267 256 266 299 296 331 298 357 303 327 329 303 303 314 293 349 277 340 310 294 250 209 263 292 330 300 304 316
Wind_Speed_850mb
41 40 38 37 35 33 31 29 27 25 23 21 18 15 12 12 13 11 9 6 3 3 3 10 14 16 16 15 17 7 19 29 25 24 24 22 19 13 14 8 20 15 12 9 7 9 9
42 41 39 37 36 36 34 32 31 28 24 21 21 19 17 14 15 15 13 9 5 3 2 5 12 17 17 31 6 8 18 29 24 23 24 18 12 12 13 9 14 9 2 6 3 4 8
43 43 42 40 38 36 36 35 34 33 30 26 23 21 20 18 15 17 16 12 8 5 5 4 8 17 20 16 12 14 26 29 26 24 19 18 14 21 14 11 5 9 17 11 15 12 9
47 48 46 44 40 37 36 35 35 35 34 30 26 24 22 18 15 17 18 16 11 8 7 6 6 11 16 22 12 18 27 28 25 23 17 15 17 22 16 5 19 13 11 14 17 22 18
50 52 51 49 45 43 41 39 37 36 35 33 29 27 24 17 13 16 19 17 13 10 7 9 4 11 21 18 24 25 26 28 24 22 18 15 20 31 15 25 9 23 11 10 17 17 5
53 55 52 50 48 46 44 43 41 39 37 34 32 30 26 16 12 15 20 17 13 11 10 9 12 16 23 26 32 31 27 21 26 24 23 23 24 28 26 20 9 15 19 17 10 19 16
54 57 57 53 50 49 47 46 44 42 39 35 34 34 30 19 14 20 26 20 8 10 27 23 21 11 15 27 31 32 28 25 24 26 29 34 26 28 8 3 13 19 17 18 11 7 13
57 60 59 57 54 52 50 49 45 44 41 38 36 37 32 19 17 27 37 23 5 5 20 36 14 12 8 25 33 33 29 29 31 29 35 27 25 31 12 8 16 20 23 17 10 8 20
60 62 61 61 60 56 52 50 46 44 43 40 39 36 23 11 18 33 40 30 10 6 17 31 28 29 25 26 31 34 35 36 25 31 34 32 27 3 5 16 24 25 15 17 17 16 14
62 63 65 66 64 58 54 51 47 45 44 43 38 23 7 14 10 19 29 30 20 7 12 23 26 28 26 29 24 24 36 35 20 28 29 24 37 16 22 24 19 28 14 17 22 25 1
63 65 67 68 65 59 56 55 50 47 44 40 26 12 8 26 24 18 11 17 17 9 12 25 24 22 31 35 24 28 27 40 32 23 20 31 23 26 29 30 4 25 16 24 21 30 29
63 65 68 69 66 62 59 58 51 50 44 33 14 4 17 12 30 13 15 17 17 14 4 17 21 25 30 37 22 17 29 32 27 29 28 32 30 24 24 12 10 21 26 33 32 29 22
63 64 67 68 67 65 62 59 54 51 42 21 9 7 18 31 7 16 12 24 13 16 9 18 27 35 32 26 28 22 27 30 28 21 28 34 38 37 29 31 28 22 29 28 19 17 13
62 63 66 67 67 67 64 62 56 49 38 11 5 10 18 12 8 12 17 19 17 9 5 9 7 29 29 25 27 25 26 28 32 33 27 22 31 47 38 42 32 29 27 24 27 19 24
61 62 65 67 68 66 66 65 59 48 34 4 11 10 6 9 12 13 26 19 7 3 10 9 18 21 27 25 21 29 27 26 28 30 28 13 14 15 18 39 37 34 33 25 30 34 26
60 61 65 67 68 67 67 66 63 46 29 12 11 9 7 11 11 13 17 26 5 11 13 14 26 20 24 31 25 27 27 21 29 25 26 28 24 13 25 16 26 32 34 21 22 25 25
59 61 63 67 68 67 66 65 66 47 20 18 8 16 9 10 11 21 18 6 3 9 10 13 19 14 18 22 21 30 22 25 17 13 17 30 28 31 17 22 28 17 26 27 29 24 24
59 60 62 66 67 66 64 65 66 52 15 18 16 5 12 15 21 22 18 5 7 20 9 18 13 25 24 24 19 25 34 27 14 13 24 28 28 27 34 33 31 27 31 29 24 35 22
57 58 61 64 66 65 65 64 62 53 28 8 14 7 9 17 12 13 7 12 11 13 14 10 14 8 23 21 20 25 29 6 5 16 15 25 18 26 36 31 37 24 28 28 36 31 31
55 57 59 62 65 66 65 63 58 45 22 3 11 9 12 19 16 20 6 14 9 9 23 13 20 19 24 25 28 23 26 23 7 23 13 11 33 38 34 38 9 17 40 31 35 31 33
54 55 56 59 63 64 63 62 59 44 20 12 7 8 10 2 6 12 9 8 12 13 8 13 17 17 23 22 30 30 28 34 24 21 17 25 38 41 45 50 49 42 40 38 35 39 33
52 52 52 56 60 60 60 59 58 49 34 23 13 14 5 6 4 13 10 5 17 14 8 24 9 27 12 26 29 34 35 27 17 33 19 23 33 36 44 51 47 47 47 46 48 47 44
49 48 49 52 56 56 55 54 56 56 40 23 21 11 12 6 4 11 10 14 13 12 8 13 18 17 23 19 28 34 36 40 40 36 35 31 30 35 43 42 45 48 44 51 52 50 44
48 44 46 49 51 50 49 48 50 51 44 30 25 13 12 5 8 13 8 7 10 10 17 22 18 20 19 27 38 41 50 54 52 45 49 40 38 29 34 39 50 42 42 45 41 39 31
47 41 42 45 47 46 43 41 44 44 40 27 28 16 12 11 8 7 9 18 19 11 20 17 19 18 22 28 20 20 25 35 37 38 39 38 35 34 32 36 49 48 37 28 24 27 19
48 39 40 42 44 43 41 36 38 39 36 22 24 21 10 17 12 11 21 7 15 15 18 9 6 18 23 21 18 24 21 26 16 13 10 18 25 29 32 42 45 33 13 26 15 24 25
50 37 37 39 41 39 37 34 35 35 36 26 19 30 10 14 5 16 11 16 16 15 13 8 12 16 13 15 18 20 23 18 20 24 26 20 12 27 28 37 39 32 25 18 21 6 19
51 36 35 36 38 34 33 32 31 32 34 32 17 29 17 12 20 7 11 12 10 12 13 19 14 11 14 13 16 13 16 13 15 23 22 25 19 24 23 21 29 40 22 12 22 21 20
50 34 33 35 35 33 31 32 30 30 30 27 15 21 19 7 13 20 15 18 19 16 18 10 12 8 16 12 11 9 17 19 27 24 1 12 16 14 13 8 33 6 34 30 19 27 20
Wind_Direction_850mb
33 30 26 21 17 12 7 3 360 357 356 353 349 334 312 279 261 257 259 259 272 284 252 221 218 213 208 232 253 240 176 181 178 179 201 213 243 291 334 354 322 13 13 338 8 273 270
31 25 21 16 12 11 5 359 354 350 347 347 344 334 321 297 259 244 241 239 236 227 178 195 200 199 202 243 158 234 183 185 185 191 204 226 288 341 281 27 302 6 324 352 101 171 214
24 19 15 10 8 5 2 357 351 346 340 339 336 331 321 307 273 239 230 229 223 213 186 147 177 192 229 233 193 196 187 186 190 200 213 226 267 269 340 295 332 287 278 200 152 177 160
21 16 12 7 4 1 357 351 344 341 334 330 329 325 323 303 278 236 222 221 217 210 194 169 158 185 257 197 198 187 180 184 199 206 230 246 244 270 267 346 238 260 282 177 135 181 172
16 13 10 7 3 359 356 350 344 337 332 328 324 320 323 302 281 231 211 210 210 206 198 184 157 199 228 222 195 184 181 189 196 204 221 232 241 255 250 238 330 242 331 20 145 193 199
12 10 8 6 3 357 352 347 342 335 330 326 318 315 317 299 272 216 196 193 195 205 198 197 233 232 219 204 185 182 181 190 194 205 221 226 234 239 226 281 260 345 326 322 352 151 210
8 5 3 1 360 357 352 347 342 334 328 323 314 311 309 295 251 200 179 156 169 213 210 212 173 259 141 160 174 184 186 192 201 212 221 201 230 235 215 258 331 292 298 298 49 137 231
5 1 359 359 357 354 350 347 344 335 329 323 316 312 305 282 226 195 187 198 271 10 212 219 221 228 170 175 182 190 191 201 204 220 224 223 232 261 36 277 276 286 275 10 150 214 218
3 0 359 357 355 352 351 351 347 336 332 325 321 317 306 238 202 197 195 208 266 286 259 174 203 205 189 199 203 187 199 215 202 222 228 249 229 237 256 251 268 269 350 342 315 278 239
1 1 359 357 356 355 355 355 349 339 335 329 326 324 303 153 163 186 217 220 231 273 264 138 191 216 192 200 224 214 198 213 228 241 239 232 258 218 234 252 273 291 10 308 289 287 165
1 1 359 358 357 358 358 359 351 344 339 334 334 330 180 155 141 167 136 183 195 229 251 160 137 144 182 205 111 187 198 216 242 213 251 234 231 245 248 252 7 292 324 308 293 293 291
1 1 360 359 0 1 359 359 355 349 344 341 348 354 156 166 153 161 152 173 170 234 169 153 149 182 189 207 206 136 196 219 233 252 238 256 258 239 261 265 238 288 277 262 251 248 251
360 1 1 1 2 2 359 359 358 353 348 353 8 121 158 136 129 154 162 168 217 260 140 150 175 167 196 185 212 180 197 202 225 217 230 233 235 248 230 257 234 235 259 271 260 223 268
359 0 1 2 2 1 360 359 0 355 352 9 68 139 159 172 175 165 171 221 257 9 144 79 208 178 204 203 208 196 191 220 214 253 284 231 220 211 216 227 260 242 253 290 308 309 332
358 359 0 2 1 -0 360 359 360 358 352 119 111 113 118 193 199 181 213 227 296 1 38 252 173 232 205 221 243 202 219 231 222 208 257 293 220 91 219 216 229 243 257 283 289 286 263
357 358 0 1 0 359 359 357 358 0 349 183 142 182 166 177 185 188 243 267 28 329 307 244 261 203 241 199 203 240 217 220 239 218 224 267 282 224 200 201 242 261 268 248 223 258 267
357 358 360 0 0 0 2 359 358 2 359 169 162 209 168 183 185 225 245 241 85 179 288 276 273 282 262 293 247 226 229 244 203 244 252 256 253 268 219 211 256 184 234 251 274 293 310
356 357 359 1 1 2 2 1 360 1 25 167 272 223 169 168 217 227 258 2 22 269 220 266 262 281 292 299 288 273 267 246 50 259 260 245 264 257 251 244 229 250 265 221 228 235 247
356 357 359 0 1 1 3 3 2 1 9 175 261 73 177 194 258 213 150 265 279 286 249 299 280 280 305 281 277 270 273 50 26 292 282 282 242 261 256 255 238 235 239 252 263 277 271
356 357 358 359 0 2 4 6 6 5 12 129 279 211 164 217 271 290 336 255 262 157 284 283 286 295 271 266 263 256 276 267 198 279 16 304 272 276 281 290 360 261 282 255 270 254 260
353 355 357 358 1 3 6 10 11 13 33 50 326 43 349 161 151 311 301 333 282 274 184 275 275 252 294 294 285 271 253 258 231 205 229 249 259 267 273 279 282 285 269 263 250 264 274
351 353 355 358 1 4 8 13 17 21 45 44 14 338 325 17 281 275 135 203 303 311 315 286 245 303 328 289 289 296 305 307 293 285 233 263 276 273 270 278 280 277 279 280 276 274 271
351 352 354 358 0 4 9 15 19 22 43 37 17 356 305 107 296 266 54 14 354 337 261 307 322 307 290 339 333 306 300 286 281 279 282 284 280 282 272 273 271 261 256 258 260 259 262
350 351 354 357 360 3 8 13 17 20 31 37 9 351 304 60 320 11 351 322 314 328 301 307 305 288 307 318 303 279 264 261 260 261 261 263 261 263 271 276 263 270 283 288 299 279 289
350 348 351 355 358 1 5 9 13 18 23 46 9 21 347 312 2 172 345 321 298 260 244 276 299 309 308 302 286 272 263 240 239 249 252 251 254 259 260 257 269 270 272 289 311 297 303
348 345 347 351 356 360 2 6 9 14 20 50 2 13 341 310 64 338 311 298 310 329 285 198 282 294 297 274 272 265 270 310 303 303 214 287 277 243 249 257 261 272 29 358 303 275 12
348 342 342 348 353 358 1 3 6 8 13 22 354 9 359 305 23 334 345 336 324 298 279 278 350 303 245 274 274 278 285 331 293 282 290 285 270 278 254 247 257 280 1 266 262 316 12
345 337 337 343 347 351 355 359 2 3 5 14 349 355 15 301 301 299 312 301 300 265 305 17 272 201 260 281 276 304 314 334 313 303 297 302 293 283 272 320 263 349 312 321 1 328 335
339 332 333 338 341 343 346 348 353 355 0 3 345 337 333 281 297 299 270 267 256 266 299 296 331 298 357 303 327 329 303 303 314 293 349 277 340 310 294 250 209 263 292 330 300 304 316